Home   Weather   Helena   Past weeks
Flag for USA

Past Weather in Helena, Montana, USA — Yesterday and Last 2 Weeks

Now
73 °F

Partly sunny.


Feels Like: 76 °F
Forecast: 72 / 53 °F
Wind: 18 mph from West

Location: Helena Regional Airport

Current Time: Jun 19, 2019 at 1:19:53 pm

Latest Report: Jun 19, 2019 at 11:53 am


Visibility: 10 mi

Pressure: 29.74 "Hg (25.77 "Hg at 1239m altitude)

Humidity: 25%

Dew Point: 35 °F

Location of HelenaLocation

Past Weather in Helena — Graph

°F

Helena Temperature Yesterday

Maximum temperature yesterday: 81 °F (at 4:53 pm)
Minimum temperature yesterday: 52 °F (at 4:53 am)
Average temperature yesterday: 67 °F

High & Low Weather Summary for the Past Weeks

 TemperatureHumidityPressure
High85 °F (Jun 13, 1:25 pm)89% (Jun 18, 4:53 am)30.46 "Hg (Jun 18, 4:53 am)
Low43 °F (Jun 8, 6:53 am)17% (Jun 4, 6:53 pm)29.51 "Hg (Jun 6, 5:53 pm)
Average64 °F46%30.00 "Hg
* Reported Jun 4 11:53 am — Jun 19 11:53 am, Helena. Weather by CustomWeather, © 2019

Note: Actual official high and low records may vary slightly from our data, if they occured in-between our weather recording intervals... More about our weather records

Advertising

Helena Weather History for the Previous 24 Hours

Scroll right to see more
 ConditionsComfort  
Time TempWeatherWind HumidityBarometerVisibility
11:53 am
Wed, Jun 19
73 °FPartly sunny.18 mph25%29.74 "Hg10 mi
10:53 am72 °FPassing clouds.20 mph31%29.74 "Hg10 mi
9:53 am68 °FSunny.13 mph36%29.76 "Hg10 mi
8:53 am65 °FSunny.14 mph40%29.79 "Hg10 mi
7:53 am66 °FSunny.13 mph40%29.80 "Hg10 mi
6:53 am63 °FSunny.7 mph45%29.81 "Hg10 mi
5:53 am63 °FSunny.No wind43%29.83 "Hg10 mi
4:53 am65 °FClear.7 mph37%29.83 "Hg10 mi
3:53 am64 °FClear.N/A38%29.84 "Hg10 mi
2:53 am64 °FClear.No wind41%29.86 "Hg10 mi
1:53 am66 °FClear.7 mph40%29.88 "Hg10 mi
12:53 am67 °FClear.7 mph39%29.88 "Hg10 mi
11:53 pm
Tue, Jun 18
68 °FClear.14 mph39%29.89 "Hg10 mi
10:53 pm68 °FClear.10 mph39%29.89 "Hg10 mi
9:53 pm67 °FClear.6 mph41%29.89 "Hg10 mi
8:53 pm74 °FSunny.14 mph31%29.88 "Hg10 mi
7:53 pm77 °FSunny.18 mph26%29.87 "Hg10 mi
6:53 pm79 °FSunny.20 mph25%29.83 "Hg10 mi
5:53 pm80 °FSunny.21 mph25%29.84 "Hg10 mi
4:53 pm81 °FSunny.18 mph24%29.86 "Hg10 mi
3:53 pm80 °FScattered clouds.13 mph26%29.87 "Hg10 mi
2:53 pm79 °FSunny.12 mph29%29.87 "Hg10 mi
2:01 pm78 °FSunny.17 mph30%29.94 "Hg10 mi
Weather by CustomWeather, © 2019

See weather overview